Location: UMBC
(39.2555°N, 76.7093°W)
Time: 00:50:23
(UTC+01:00)

Amateur Radio Satellites - All Passes

Search period start: 29 March 2015 00:20
Search period end: 30 March 2015 01:20
Location: UMBC, 39.2555°N, 76.7093°W

Satellite Date Start Highest point End Downlink Frequencies (MHz)
Time Altitude Azimuth
M-CUBED/EXP-1 PRIME 29 Mar 00:23:03 00:27:31 36° 294° (WNW) 00:31:52 437.505
CUBESAT XI-V 29 Mar 00:23:50 00:28:24 55° 99° (E) 00:32:56 437.345
BEESAT 3 29 Mar 00:37:56 00:41:55 47° 54° (NE) 00:45:51 437.485
HO-68 29 Mar 00:41:27 00:46:54 25° 61° (ENE) 00:52:34 435.675
STRAND 1 29 Mar 00:47:50 00:52:48 50° 99° (E) 00:57:44 437.568
GOMX 1 29 Mar 00:51:48 00:54:08 15° 68° (ENE) 00:56:36 467.674
AIST 2 29 Mar 01:06:13 01:09:56 29° 50° (NE) 01:13:39 435.215
CANX-2 29 Mar 01:10:42 01:13:46 20° 69° (ENE) 01:16:59 2200.000
GONETS M04 29 Mar 01:17:16 01:25:58 89° 96° (E) 01:34:46
RS-15 29 Mar 01:17:46 01:28:40 82° 302° (WNW) 01:39:49 29.354- 29.394
CUTE 1.7 + AOD 2 29 Mar 01:24:20 01:27:48 26° 70° (ENE) 01:31:22 437.475
SO-50 29 Mar 01:31:07 01:35:23 34° 311° (NW) 01:39:44 436.795
BRITE-PL 29 Mar 01:35:57 01:40:44 70° 76° (ENE) 01:45:10 437.365/2234.400
PRISM 29 Mar 01:37:24 01:40:58 27° 290° (WNW) 01:44:26 437.425
BEESAT 2 29 Mar 01:37:43 01:41:41 45° 244° (WSW) 01:45:34 435.950
AAUSAT CUBESAT 2 29 Mar 01:52:06 01:55:45 31° 71° (ENE) 01:59:29 437.432
SEEDS 29 Mar 01:54:18 01:58:19 47° 74° (ENE) 03:02:25 437.485
CUBESAT XI-V 29 Mar 03:02:47 03:05:26 15° 295° (WNW) 03:07:53 437.345
CINEMA 3 29 Mar 03:07:01 03:10:42 30° 72° (ENE) 03:14:23 145.822/145.860
Oscar 11 29 Mar 03:11:02 03:14:30 25° 70° (ENE) 03:18:04 145.826/435.025
CUSAT 1 29 Mar 03:13:31 03:16:15 33° 97° (E) 03:18:43 437.405
BEESAT 3 29 Mar 03:17:16 03:19:37 15° 250° (WSW) 03:21:48 437.485
COMPASS 1 29 Mar 03:17:56 03:22:05 73° 77° (ENE) 03:26:18 437.405
DOVE 4 29 Mar 03:20:24 03:24:49 90° 251° (WSW) 03:29:03 437.250
FUNcube-1 29 Mar 03:21:04 03:23:24 15° 67° (ENE) 03:25:54 145.935
UWE-3 29 Mar 03:22:20 03:25:19 20° 69° (ENE) 03:28:23 435.000/436.395/437.385
CUBEBUG 2 29 Mar 03:25:03 03:28:27 26° 71° (ENE) 03:31:57 437.445
HO-68 29 Mar 03:27:02 03:34:09 64° 258° (WSW) 03:41:17 435.675
GOMX 1 29 Mar 03:27:35 03:32:01 49° 261° (W) 03:36:13 467.674
STRAND 1 29 Mar 03:28:01 03:31:40 19° 295° (WNW) 03:35:09 437.568
ZACube-1 29 Mar 03:32:47 03:35:51 21° 69° (ENE) 03:39:02 437.345
AIST 2 29 Mar 03:44:53 03:48:29 26° 247° (WSW) 03:51:56 435.215
CANX-2 29 Mar 03:45:44 03:49:33 32° 264° (W) 03:53:22 2200.000
50 SAT 29 Mar 03:53:25 03:54:16 11° 65° (ENE) 03:55:19 437.505
DANDE 29 Mar 03:57:18 04:00:33 60° 280° (W) 04:03:16 436.750
CUTE 1.7 + AOD 2 29 Mar 04:00:11 04:03:43 25° 266° (W) 04:07:10 437.475
DELFI C3 29 Mar 04:11:44 04:15:48 87° 257° (WSW) 04:19:54 145.870
UKube-1 29 Mar 04:16:20 04:20:32 51° 73° (ENE) 04:24:47 .
GONETS M04 29 Mar 04:18:25 04:24:16 18° 299° (WNW) 04:29:40
BRITE-PL 29 Mar 04:18:49 04:19:43 10° 271° (W) 04:20:17 437.365/2234.400
ISS 29 Mar 04:24:14 04:26:15 16° 131° (SE) 04:28:20 145.825
DX 1 29 Mar 04:25:17 04:29:37 70° 75° (ENE) 04:33:59 434.975-435.025
AAUSAT CUBESAT 2 29 Mar 04:28:20 04:31:28 20° 267° (W) 04:34:32 437.432
HUMSAT D 29 Mar 04:29:29 04:33:22 45° 74° (ENE) 04:37:20 437.325/437.525
SEEDS 29 Mar 04:32:18 04:34:29 13° 270° (W) 04:36:27 437.485
RS-15 29 Mar 04:34:06 04:43:09 28° 330° (NNW) 04:52:12 29.354- 29.394
CINEMA 3 29 Mar 04:44:52 04:48:01 20° 267° (W) 04:51:01 145.822/145.860
Oscar 11 29 Mar 04:46:55 04:50:37 27° 265° (W) 04:54:17 145.826/435.025
FUNcube-1 29 Mar 04:55:31 04:59:27 41° 262° (W) 05:03:24 145.935
UWE-3 29 Mar 04:58:00 05:01:42 31° 264° (W) 05:05:23 435.000/436.395/437.385
CUBEBUG 2 29 Mar 05:01:48 05:05:11 23° 266° (W) 05:08:29 437.445
VELOX 1 29 Mar 05:01:57 05:06:23 73° 75° (ENE) 05:10:49 145.980
CUBEBUG 1 29 Mar 05:04:52 05:08:51 34° 71° (ENE) 05:12:50 437.445
POPSAT HIP 1 29 Mar 05:04:56 05:06:41 13° 90° (E) 05:08:40 437.405
AISAT 29 Mar 05:06:15 05:10:43 84° 76° (ENE) 05:15:10 437.250
UNISAT 6 29 Mar 05:07:37 05:11:38 30° 96° (E) 05:15:45 437.425
ZACube-1 29 Mar 05:08:28 05:12:06 29° 264° (W) 05:15:44 437.345
NANOSAT C BR1 29 Mar 05:15:08 05:17:48 17° 92° (E) 05:20:37 145.865
TIGRISAT 29 Mar 05:18:04 05:22:19 38° 97° (E) 05:26:40 435.000
POLYITAN 1 29 Mar 05:18:23 05:21:21 19° 93° (E) 05:24:27 437.675
SPROUT 29 Mar 05:19:30 05:21:12 12° 65° (ENE) 05:23:06 437.525
50 SAT 29 Mar 05:24:56 05:28:45 55° 260° (W) 05:32:38 437.505
ESTCUBE 1 29 Mar 05:33:00 05:37:33 80° 76° (ENE) 05:42:08 437.505/2401.250
ANTELSAT 29 Mar 05:47:43 05:52:20 83° 105° (ESE) 05:57:01 437.575/2403.000
UKube-1 29 Mar 05:54:55 05:57:04 13° 270° (W) 05:58:58 .
QB50P1 29 Mar 05:55:17 05:59:24 49° 99° (E) 06:03:31 145.935-145.965
DUCHIFAT 1 29 Mar 05:57:35 06:01:42 51° 100° (E) 06:05:49 145.980
ISS 29 Mar 05:59:13 06:02:24 50° 325° (NW) 06:05:35 145.825
HUMSAT D 29 Mar 06:07:28 06:09:29 13° 270° (W) 06:11:17 437.325/437.525
QB50P2 29 Mar 06:09:45 06:14:00 76° 102° (ESE) 06:18:14 145.880/145.840
YUBILEINY 29 Mar 06:15:55 06:23:01 27° 67° (ENE) 06:30:20 435.215
PCSat 29 Mar 06:16:43 06:21:58 49° 56° (NE) 06:27:13 145.827
ITUPSAT 1 29 Mar 06:27:16 06:27:40 10° 62° (ENE) 06:28:23 437.325
POPSAT HIP 1 29 Mar 06:38:50 06:42:57 50° 286° (WNW) 06:47:02 437.405
CUBEBUG 1 29 Mar 06:41:59 06:45:19 20° 267° (W) 06:48:32 437.445
BUGSAT 1 29 Mar 06:42:01 06:46:01 64° 285° (WNW) 06:49:59 437.445
UNISAT 6 29 Mar 06:44:32 06:48:20 25° 290° (WNW) 06:52:05 437.425
TISAT 1 29 Mar 06:44:52 06:49:06 84° 257° (WSW) 06:53:20 437.305
NANOSAT C BR1 29 Mar 06:49:55 06:53:51 37° 288° (WNW) 06:57:44 145.865
SPROUT 29 Mar 06:52:38 06:56:52 58° 260° (W) 07:01:07 437.525
POLYITAN 1 29 Mar 06:53:33 06:57:24 34° 288° (WNW) 07:01:13 437.675
RS-15 29 Mar 06:53:56 07:00:55 18° 5° (N) 07:08:09 29.354- 29.394
TIGRISAT 29 Mar 06:55:26 06:58:52 21° 292° (WNW) 07:02:13 435.000
SWISSCUBE 29 Mar 07:11:16 07:15:28 32° 70° (ENE) 07:19:46 437.505
BEESAT 29 Mar 07:14:23 07:18:34 32° 70° (ENE) 07:22:50 436.000
ANTELSAT 29 Mar 07:28:01 07:28:34 10° 296° (WNW) 07:28:51 437.575/2403.000
QB50P1 29 Mar 07:32:39 07:34:55 14° 294° (WNW) 07:37:00 145.935-145.965
DUCHIFAT 1 29 Mar 07:35:02 07:37:09 13° 294° (WNW) 07:39:06 145.980
ISS 29 Mar 07:37:46 07:39:25 13° 344° (NNW) 07:41:02 145.825
ITUPSAT 1 29 Mar 08:00:06 08:04:55 89° 244° (WSW) 08:09:48 437.325
PCSat 29 Mar 08:00:55 08:05:05 22° 253° (WSW) 08:09:05 145.827
STARS 29 Mar 08:09:12 08:11:10 13° 65° (ENE) 08:13:21 437.465
YUBILEINY 29 Mar 08:11:53 08:20:35 63° 268° (W) 08:29:09 435.215
Oscar 19 29 Mar 08:20:11 08:25:13 51° 99° (E) 08:30:16 437.125/150
Gurwin Techsat 1B 29 Mar 08:31:36 08:34:46 16° 90° (E) 08:38:10 435.225
SWISSCUBE 29 Mar 08:49:21 08:53:23 26° 266° (W) 08:57:20 437.505
BEESAT 29 Mar 08:52:25 08:56:28 26° 266° (W) 09:00:25 436.000
RS-15 29 Mar 09:08:01 09:18:07 36° 38° (NE) 09:28:50 29.354- 29.394
KKS-1 29 Mar 09:09:22 09:13:48 86° 260° (W) 09:18:16 437.445
SO-50 29 Mar 09:23:11 09:27:06 23° 45° (NE) 09:31:04 436.795
ITAMSAT 1 29 Mar 09:24:16 09:29:26 66° 101° (ESE) 09:34:35 435.822/435.867
HORYU 2 29 Mar 09:39:19 09:41:52 15° 91° (E) 09:44:36 437.375
STARS 29 Mar 09:42:54 09:47:13 57° 260° (W) 09:51:33 437.465
Oscar 19 29 Mar 10:00:33 10:04:15 19° 295° (WNW) 10:07:47 437.125/150
Gurwin Techsat 1B 29 Mar 10:09:59 10:15:13 58° 287° (WNW) 10:20:24 435.225
AUBIESAT-1 29 Mar 10:14:22 10:16:11 13° 58° (ENE) 10:18:14 437.475
M-CUBED/EXP-1 PRIME 29 Mar 10:36:40 10:39:55 24° 63° (ENE) 10:43:28 437.505
MOZHAYETS 4 29 Mar 10:40:23 10:44:48 47° 73° (ENE) 10:49:17
AIST 1 29 Mar 10:49:21 10:53:46 88° 283° (WNW) 10:58:12
AO-7 29 Mar 10:49:51 10:57:46 49° 100° (E) 11:05:45 29.400- 29.500
ISS 29 Mar 10:51:48 10:54:20 21° 24° (NNE) 10:56:54 145.825
O/OREOS (USA 219) 29 Mar 10:52:00 10:56:35 77° 292° (WNW) 11:01:12 437.305
JAS-2 29 Mar 11:00:10 11:07:45 55° 98° (E) 11:14:43 435.910
SO-50 29 Mar 11:03:09 11:07:57 50° 243° (WSW) 11:12:40 436.795
ITAMSAT 1 29 Mar 11:05:23 11:08:28 16° 297° (WNW) 11:11:19 435.822/435.867
HORYU 2 29 Mar 11:14:30 11:18:51 47° 287° (WNW) 11:23:10 437.375
RS-15 29 Mar 11:20:16 11:31:48 77° 242° (WSW) 11:43:48 29.354- 29.394
VERMONT LUNAR 29 Mar 11:43:24 11:46:20 28° 153° (SSE) 11:49:17 437.305
AUBIESAT-1 29 Mar 11:46:33 11:50:27 60° 255° (WSW) 11:54:44 437.475
PRISM 29 Mar 11:52:19 11:54:53 16° 67° (ENE) 11:57:38 437.425
M-CUBED/EXP-1 PRIME 29 Mar 12:11:19 12:14:44 27° 261° (W) 12:18:22 437.505
MOZHAYETS 4 29 Mar 12:19:26 12:22:21 16° 270° (W) 12:25:05
PHONESAT 2.4 29 Mar 12:20:06 12:23:02 25° 151° (SSE) 12:25:58 2401.200-2431.200
CUBESAT XI-V 29 Mar 12:26:03 12:30:34 48° 73° (ENE) 12:35:07 437.345
ISS 29 Mar 12:27:47 12:30:57 53° 222° (SW) 12:34:05 145.825
GONETS M04 29 Mar 12:29:01 12:37:16 43° 73° (ENE) 12:45:36
AO-7 29 Mar 12:42:57 12:50:26 38° 298° (WNW) 12:57:46 29.400- 29.500
JAS-2 29 Mar 12:45:43 12:52:23 31° 296° (WNW) 12:58:29 435.910
STRAND 1 29 Mar 13:02:33 13:07:38 65° 74° (ENE) 13:12:46 437.568
VERMONT LUNAR 29 Mar 13:20:30 13:23:51 87° 347° (NNW) 13:27:14 437.305
CUTE-I 29 Mar 13:21:19 13:26:36 66° 101° (E) 13:31:53 437.470
Cubesat XI-IV 29 Mar 13:21:22 13:26:41 67° 101° (E) 13:31:58 437.490
PRISM 29 Mar 13:26:06 13:30:05 41° 261° (W) 13:34:06 437.425
RS-15 29 Mar 13:35:47 13:42:50 17° 259° (W) 13:49:02 29.354- 29.394
CUSAT 1 29 Mar 13:48:33 13:52:26 32° 78° (ENE) 13:57:30 437.405
PHONESAT 2.4 29 Mar 13:57:35 14:01:07 84° 167° (SSE) 14:04:40 2401.200-2431.200
CUBESAT XI-V 29 Mar 14:05:17 14:08:20 16° 270° (W) 14:11:10 437.345
GONETS M04 29 Mar 14:26:01 14:34:06 41° 272° (W) 14:42:03
DANDE 29 Mar 14:35:29 14:39:30 73° 80° (E) 14:44:59 436.750
BRITE-PL 29 Mar 14:42:08 14:45:16 21° 94° (E) 14:48:37 437.365/2234.400
STRAND 1 29 Mar 14:44:37 14:47:23 14° 271° (W) 14:49:52 437.568
HO-68 29 Mar 14:56:34 15:02:21 27° 93° (E) 15:08:19 435.675
VERMONT LUNAR 29 Mar 14:58:20 15:01:40 72° 5° (N) 15:05:02 437.305
CUTE-I 29 Mar 15:02:56 15:06:12 16° 297° (WNW) 15:09:15 437.470
Cubesat XI-IV 29 Mar 15:03:03 15:06:18 16° 297° (WNW) 15:09:19 437.490
COMPASS 1 29 Mar 15:04:26 15:06:20 13° 89° (E) 15:08:26 437.405
DOVE 4 29 Mar 15:20:29 15:24:02 24° 95° (E) 15:27:48 437.250
GOMX 1 29 Mar 15:29:48 15:33:55 46° 99° (E) 15:38:16 467.674
CUSAT 1 29 Mar 15:31:34 15:35:13 23° 264° (W) 15:39:33 437.405
CANX-2 29 Mar 15:31:42 15:35:51 45° 98° (E) 15:39:59 2200.000
BEESAT 3 29 Mar 15:33:19 15:34:21 11° 109° (ESE) 15:35:37 437.485
PHONESAT 2.4 29 Mar 15:36:02 15:39:34 71° 3° (N) 15:43:06 2401.200-2431.200
CUTE 1.7 + AOD 2 29 Mar 15:45:36 15:49:52 59° 100° (E) 15:54:07 437.475
DELFI C3 29 Mar 15:54:08 15:56:15 14° 90° (E) 15:58:33 145.870
UNISAT 6 29 Mar 16:06:27 16:09:44 23° 69° (ENE) 16:13:10 437.425
NANOSAT C BR1 29 Mar 16:08:21 16:09:52 12° 65° (ENE) 16:11:36 145.865
AAUSAT CUBESAT 2 29 Mar 16:11:13 16:15:27 69° 101° (E) 16:19:39 437.432
POLYITAN 1 29 Mar 16:11:50 16:13:49 14° 66° (ENE) 16:16:01 437.675
SEEDS 29 Mar 16:15:16 16:19:34 75° 284° (WNW) 16:23:50 437.485
TIGRISAT 29 Mar 16:16:29 16:20:05 28° 70° (ENE) 16:23:47 435.000
DX 1 29 Mar 16:16:40 16:18:29 13° 90° (E) 16:20:33 434.975-435.025
BRITE-PL 29 Mar 16:20:12 16:23:55 30° 288° (WNW) 16:27:41 437.365/2234.400
BEESAT 2 29 Mar 16:30:44 16:34:35 42° 116° (ESE) 16:38:32 435.950
Oscar 11 29 Mar 16:34:31 16:38:50 57° 100° (E) 16:43:07 145.826/435.025
VERMONT LUNAR 29 Mar 16:36:05 16:39:20 47° 202° (SSW) 16:42:36 437.305
COMPASS 1 29 Mar 16:38:15 16:42:23 49° 286° (WNW) 16:46:28 437.405
CINEMA 3 29 Mar 16:38:46 16:43:12 86° 286° (WNW) 16:47:49 145.822/145.860
HO-68 29 Mar 16:43:28 16:50:29 56° 291° (WNW) 16:57:26 435.675
FUNcube-1 29 Mar 16:44:35 16:48:39 37° 97° (E) 16:52:49 145.935
ANTELSAT 29 Mar 16:45:57 16:50:09 63° 75° (ENE) 16:54:26 437.575/2403.000
QB50P1 29 Mar 16:47:18 16:51:03 32° 71° (ENE) 16:54:51 145.935-145.965
UWE-3 29 Mar 16:48:00 16:52:20 52° 100° (E) 16:56:45 435.000/436.395/437.385
DUCHIFAT 1 29 Mar 16:49:17 16:53:03 33° 72° (ENE) 16:56:52 145.980
CUBEBUG 2 29 Mar 16:52:26 16:56:52 72° 101° (ESE) 17:01:25 437.445
VELOX 1 29 Mar 16:55:09 16:57:34 15° 91° (E) 17:00:09 145.980
ZACube-1 29 Mar 16:57:12 17:01:30 53° 100° (E) 17:05:54 437.345
DOVE 4 29 Mar 16:58:06 17:01:49 28° 289° (WNW) 17:05:37 437.250
AISAT 29 Mar 16:59:22 17:02:12 17° 92° (E) 17:05:12 437.250
QB50P2 29 Mar 17:01:41 17:05:45 49° 74° (ENE) 17:09:51 145.880/145.840
50 SAT 29 Mar 17:04:33 17:07:26 19° 93° (E) 17:10:24 437.505
BEESAT 3 29 Mar 17:07:53 17:11:56 62° 303° (WNW) 17:16:03 437.485
CANX-2 29 Mar 17:08:47 17:11:27 16° 293° (WNW) 17:13:57 2200.000
GOMX 1 29 Mar 17:09:17 17:11:49 15° 292° (WNW) 17:14:14 467.674
PHONESAT 2.4 29 Mar 17:14:26 17:17:56 57° 199° (SSW) 17:21:24 2401.200-2431.200
CUTE 1.7 + AOD 2 29 Mar 17:23:29 17:25:21 12° 295° (WNW) 17:27:01 437.475
DELFI C3 29 Mar 17:27:47 17:31:41 42° 287° (WNW) 17:35:33 145.870
ESTCUBE 1 29 Mar 17:27:58 17:31:00 18° 92° (E) 17:34:10 437.505/2401.250
POPSAT HIP 1 29 Mar 17:30:21 17:34:35 78° 258° (WSW) 17:38:49 437.405
BUGSAT 1 29 Mar 17:30:46 17:34:56 75° 76° (ENE) 17:39:04 437.445
UKube-1 29 Mar 17:40:53 17:45:13 72° 285° (WNW) 17:49:30 .
AIST 2 29 Mar 17:40:59 17:45:14 84° 121° (ESE) 17:49:34 435.215
NANOSAT C BR1 29 Mar 17:41:09 17:45:18 58° 260° (W) 17:49:28 145.865
UNISAT 6 29 Mar 17:42:43 17:46:26 29° 265° (W) 17:50:10 437.425
POLYITAN 1 29 Mar 17:45:16 17:49:23 50° 260° (W) 17:53:30 437.675
AAUSAT CUBESAT 2 29 Mar 17:49:42 17:50:35 10° 295° (WNW) 17:51:13 437.432
HUMSAT D 29 Mar 17:49:58 17:54:15 78° 284° (WNW) 17:58:32 437.325/437.525
DX 1 29 Mar 17:50:54 17:55:08 52° 287° (WNW) 17:59:20 434.975-435.025
TIGRISAT 29 Mar 17:53:28 17:56:52 23° 266° (W) 18:00:14 435.000
BEESAT 2 29 Mar 18:09:51 18:12:57 20° 314° (NW) 18:16:00 435.950
Oscar 11 29 Mar 18:12:28 18:14:35 13° 295° (WNW) 18:16:30 145.826/435.025
VERMONT LUNAR 29 Mar 18:15:48 18:16:35 11° 215° (SW) 18:17:15 437.305
FUNcube-1 29 Mar 18:21:36 18:24:47 19° 292° (WNW) 18:27:54 145.935
QB50P1 29 Mar 18:23:55 18:27:02 19° 267° (W) 18:30:02 145.935-145.965
DUCHIFAT 1 29 Mar 18:25:58 18:29:01 19° 267° (W) 18:31:56 145.980
UWE-3 29 Mar 18:26:00 18:28:31 15° 293° (WNW) 18:30:53 435.000/436.395/437.385
VELOX 1 29 Mar 18:30:13 18:34:27 46° 287° (WNW) 18:38:38 145.980
CUBEBUG 1 29 Mar 18:30:37 18:34:58 81° 102° (ESE) 18:39:17 437.445
CUBEBUG 2 29 Mar 18:31:47 18:33:06 11° 295° (WNW) 18:34:10 437.445
TISAT 1 29 Mar 18:31:50 18:34:25 16° 92° (E) 18:37:09 437.305
AISAT 29 Mar 18:34:54 18:39:02 40° 288° (WNW) 18:43:08 437.250
ZACube-1 29 Mar 18:35:05 18:37:31 14° 293° (WNW) 18:39:47 437.345
HO-68 29 Mar 18:36:04 18:36:52 10° 309° (NW) 18:37:11 435.675
50 SAT 29 Mar 18:38:50 18:42:25 30° 288° (WNW) 18:45:57 437.505
QB50P2 29 Mar 18:39:56 18:42:00 13° 270° (W) 18:43:51 145.880/145.840
SPROUT 29 Mar 18:40:51 18:44:23 25° 95° (E) 18:47:59 437.525
PHONESAT 2.4 29 Mar 18:53:52 18:55:51 14° 214° (SSW) 18:57:46 2401.200-2431.200
ESTCUBE 1 29 Mar 19:03:52 19:08:06 39° 288° (WNW) 19:12:16 437.505/2401.250
ITAMSAT 1 29 Mar 19:06:09 19:07:31 11° 61° (ENE) 19:09:14 435.822/435.867
YUBILEINY 29 Mar 19:15:50 19:23:10 32° 85° (E) 19:30:45 435.215
AIST 2 29 Mar 19:22:29 19:24:29 13° 320° (NW) 19:26:20 435.215
O/OREOS (USA 219) 29 Mar 19:24:58 19:27:57 17° 55° (NE) 19:31:02 437.305
Oscar 19 29 Mar 19:35:59 19:41:01 66° 75° (ENE) 19:46:08 437.125/150
Gurwin Techsat 1B 29 Mar 19:51:25 19:55:35 25° 67° (ENE) 19:59:53 435.225
AO-7 29 Mar 20:01:10 20:04:13 13° 48° (NE) 20:07:45 29.400- 29.500
ITUPSAT 1 29 Mar 20:02:28 20:06:24 25° 94° (E) 20:10:24 437.325
TISAT 1 29 Mar 20:06:31 20:10:25 38° 288° (WNW) 20:14:17 437.305
SPROUT 29 Mar 20:16:52 20:20:27 26° 290° (WNW) 20:23:56 437.525
HORYU 2 29 Mar 20:37:44 20:39:44 13° 65° (ENE) 20:41:58 437.375
ITAMSAT 1 29 Mar 20:41:08 20:46:22 89° 65° (ENE) 20:51:37 435.822/435.867
SWISSCUBE 29 Mar 20:49:47 20:54:36 89° 103° (ESE) 20:59:22 437.505
BEESAT 29 Mar 20:52:45 20:57:34 88° 105° (ESE) 21:02:21 436.000
PCSat 29 Mar 20:57:09 21:02:24 55° 114° (ESE) 21:07:43 145.827
AIST 1 29 Mar 20:58:35 21:01:43 20° 72° (ENE) 21:04:57
KKS-1 29 Mar 21:02:28 21:05:39 20° 93° (E) 21:08:58 437.445
O/OREOS (USA 219) 29 Mar 21:03:19 21:07:42 47° 253° (WSW) 21:12:00 437.305
YUBILEINY 29 Mar 21:11:05 21:19:39 53° 284° (WNW) 21:28:15 435.215
JAS-2 29 Mar 21:11:30 21:16:42 24° 60° (ENE) 21:22:29 435.910
Oscar 19 29 Mar 21:18:22 21:20:58 13° 271° (W) 21:23:16 437.125/150
Gurwin Techsat 1B 29 Mar 21:30:21 21:35:22 41° 262° (W) 21:40:22 435.225
JUGNU 29 Mar 21:30:53 21:32:05 11° 176° (S) 21:33:20 437.505
STARS 29 Mar 21:34:06 21:37:51 27° 96° (E) 21:41:39 437.465
ITUPSAT 1 29 Mar 21:40:05 21:44:21 32° 290° (WNW) 21:48:32 437.325
AO-7 29 Mar 21:47:26 21:55:31 60° 67° (ENE) 22:03:39 29.400- 29.500
HORYU 2 29 Mar 22:11:36 22:15:57 58° 259° (W) 22:20:22 437.375
SWISSCUBE 29 Mar 22:31:28 22:31:49 10° 298° (WNW) 22:31:52 437.505
BEESAT 29 Mar 22:34:05 22:34:47 10° 298° (WNW) 22:35:11 436.000
AIST 1 29 Mar 22:35:41 22:39:29 30° 269° (W) 22:43:12
KKS-1 29 Mar 22:38:21 22:42:26 35° 289° (WNW) 22:46:28 437.445
MOZHAYETS 4 29 Mar 22:38:38 22:40:25 12° 88° (E) 22:42:29
PCSat 29 Mar 22:41:57 22:46:13 22° 313° (NW) 22:50:24 145.827
JAS-2 29 Mar 22:54:12 23:01:00 71° 259° (W) 23:08:36 435.910
CUTE-I 29 Mar 23:05:56 23:08:03 13° 61° (ENE) 23:10:26 437.470
Cubesat XI-IV 29 Mar 23:06:02 23:08:15 13° 61° (ENE) 23:10:44 437.490
STARS 29 Mar 23:10:36 23:14:15 25° 291° (WNW) 23:17:49 437.465
AUBIESAT-1 29 Mar 23:30:29 23:32:40 13° 93° (E) 23:35:04 437.475
RS-15 29 Mar 23:36:21 23:41:50 16° 101° (E) 23:48:13 29.354- 29.394
AO-7 29 Mar 23:41:45 23:48:49 29° 266° (W) 23:55:40 29.400- 29.500
M-CUBED/EXP-1 PRIME 29 Mar 23:53:33 23:57:36 27° 99° (E) 00:01:39 437.505
MOZHAYETS 4 30 Mar 00:13:32 00:18:09 61° 286° (WNW) 00:22:42
SRMSAT 30 Mar 00:18:19 00:19:38 11° 183° (S) 00:20:55 437.500
CUBESAT XI-V 30 Mar 00:25:49 00:27:45 13° 89° (E) 00:29:56 437.345
CUTE-I 30 Mar 00:42:06 00:47:29 85° 254° (WSW) 00:52:53 437.470
Cubesat XI-IV 30 Mar 00:42:20 00:47:43 84° 255° (WSW) 00:53:08 437.490
JAS-2 30 Mar 00:46:09 00:47:46 10° 281° (W) 00:48:44 435.910
BEESAT 2 30 Mar 00:51:35 00:54:46 21° 47° (NE) 00:57:59 435.950
AUBIESAT-1 30 Mar 01:03:10 01:07:59 66° 290° (WNW) 01:12:39 437.475
PRISM 30 Mar 01:09:58 01:13:34 28° 96° (E) 01:17:11 437.425
